Other Public Products
Issued by NWS Charleston, SC

Current Version | Previous Version | Graphics & Text | Print | Product List | Glossary On
Versions: 1 2 3 4 5 6 7 8 9 10 11 12 13 14 15 16 17 18 19 20 21 22 23 24 25 26 27 28 29 30 31 32 33 34 35 36 37 38 39 40 41 42 43 44 45 46 47 48 49 50
579
FPUS82 KCHS 232027
OPUCHS

TEST...KCHS/KSAV Gateway Observations...TEST
National Weather Service Charleston SC
300 PM EST THU NOV 23 2017

NOTE: "fair" indicates few or no clouds below 12,000 feet with no
significant weather and/or obstructions to visibility.

SCZ050-WAZ558-NCZ071-TXZ119-213-PAZ071-DCZ001-FLZ074-172-MI076-
NYZ176-178-MAZ016-IL014-TNZ027-NJZ106-GAZ044-MD014-232100-

...Gateway Observations for Charleston International...

CITY           SKY/WX    TMP DP  RH WIND       PRES   REMARKS
Chas Airport   LGT RAIN  47  46  97 NE10      30.00F
Seattle        CLOUDY    53  50  89 SW12      29.82S
Charlotte      MOSUNNY   55  28  35 SE6       30.04F
Dallas DFW     MOSUNNY   67  27  22 S5        30.06F
Dallas Love    MOSUNNY   66  25  21 SW3       30.08F
Philladelphia  MOSUNNY   42  18  37 N5        30.06F
Wash National  MOSUNNY   46  22  38 CALM      30.08F
Baltimore      MOSUNNY   44  23  43 NW6       30.07F
Miami          PTSUNNY   80  73  79 SE7       29.81S
Detroit        MOSUNNY   40  22  48 SW16      29.98F WCI  31
Newark         MOSUNNY   44  18  35 CALM      30.02F
Laguardia      MOSUNNY   44  18  35 NW6       30.01F
J F K          MOSUNNY   43  19  38 NW6       30.03F
Boston Logan   MOSUNNY   42  18  37 SW7       29.97S
Ft. Lauderdale CLOUDY    80  70  71 SW9       29.80S
Chicago O`Hare MOSUNNY   46  23  40 W10       29.91S
Chicago Midway MOSUNNY   47  25  42 W9        29.92S
Houston Bush   MOSUNNY   65  35  33 NW6       30.10F
Houston Hobby  MOSUNNY   63  33  32 NW7       30.10F
Nashville      MOSUNNY   54  22  28 NE3       30.06F
Atlanta        MOSUNNY   61  39  44 NE8       29.99F

$$

GAZ044-118-TXZ119-213-NCZ071-DCZ001-MDZ014-506-PAZ021-071-NJZ106-
NYZ176-178-MAZ106-OHZ011-021-055-MIZ076-KYZ091-ILZ014-INZ047-
MNZ060-ONZ431-232100-

...Gateway Observations for Savannah International...

CITY           SKY/WX    TMP DP  RH WIND       PRES   REMARKS
Savannah Arpt  LGT RAIN  51  50  96 NE7       29.96F FOG
Atlanta        MOSUNNY   61  39  44 NE8       29.99F
Charlotte      MOSUNNY   55  28  35 SE6       30.04F
Dallas DFW     MOSUNNY   67  27  22 S5        30.06F
Houston Bush   MOSUNNY   65  35  33 NW6       30.10F
Wash National  MOSUNNY   46  22  38 CALM      30.08F
Wash Dulles    MOSUNNY   44  22  41 W7        30.07F
Baltimore      MOSUNNY   44  23  43 NW6       30.07F
Philadelphia   MOSUNNY   42  18  37 N5        30.06F
Newark         MOSUNNY   44  18  35 CALM      30.02F
Laguardia      MOSUNNY   44  18  35 NW6       30.01F
J F K          MOSUNNY   43  19  38 NW6       30.03F
Boston         MOSUNNY   42  18  37 SW7       29.97S
Pittsburg      MOSUNNY   39  21  48 SW8       30.02F WCI  33
Akron          CLOUDY    39  22  50 SW9       30.01F WCI  33
Cleveland      CLOUDY    40  24  53 SW10      30.02F WCI  33
Cincinnati     PTSUNNY   43  26  51 S7        30.03F
Columbus       CLOUDY    39  26  58 S9        30.04F WCI  33
Detroit        MOSUNNY   40  22  48 SW16      29.98F WCI  31
Chicago O`Hare MOSUNNY   46  23  40 W10       29.91S
Minneapolis    SUNNY     43  23  45 SW5       29.85F
Indianapolis   MOSUNNY   45  22  40 S12       30.00F
Toronto Canada CLOUDY    37  18  44 SW14      29.92F WCI  29

$$




USA.gov is the U.S. government's official web portal to all federal, state and local government web resources and services.